Location: Newark
(58.6000°N, 7.8338°E)
Time: 17:21:08
(UTC+00:00)

OTV 5 (USA 277) - Pass Details

Date: 19 August 2019
Orbit: 295 x 339 km, 54.5° (Epoch: 08 September)

Event Time Altitude Azimuth Distance (km) Brightness Sun altitude
Exits shadow 01:56:38 29° 196° (SSW) 581 ? -12.7°
Maximum altitude 01:56:46 29° 189° (S) 578 ? -12.7°
Drops below altitude 10° 01:59:05 10° 125° (SE) 1,170 ? -12.5°
Sets 02:01:08 0° 114° (ESE) 1,998 ? -12.4°
